Henderson, KY

1:47 PM CST on December 05, 2019 (GMT -0600)
Henderson City-County

Weather History for KEHR - October, 2019

Change the Weather History Date:

Friday, October 11, 2019

  Actual Average Record
Temperature  
Mean Temperature 58 °F -  
Max Temperature 72 °F 72 °F 94 °F (1963)
Min Temperature 42 °F 47 °F 30 °F (2000)
Degree Days  
Heating Degree Days 7    
Growing Degree Days 8 (Base 50)    
Moisture  
Dew Point 54 °F    
Average Humidity 87    
Maximum Humidity 97    
Minimum Humidity 71    
Precipitation  
Precipitation 0.14 in - - ()
Sea Level Pressure  
Sea Level Pressure 30.03 in    
Wind  
Wind Speed 12 mph (WSW)    
Max Wind Speed 21 mph    
Max Gust Speed 26 mph    
Visibility 9 miles    
Events Rain , Thunderstorm    
Averages and records for this station are not official NWS values.
T = Trace of Precipitation, MM = Missing Value Source: NWS Daily Summary

Daily Weather History Graph

Daily Weather History Graph

Search for Another Location

Airport or City:

Astronomy

Oct. 11, 2019 Rise Set
Actual Time 6:55 AM CDT 6:19 PM CDT
Civil Twilight 6:28 AM CDT 6:45 PM CDT
Nautical Twilight 5:58 AM CDT 7:15 PM CDT
Astronomical Twilight 5:27 AM CDT 7:46 PM CDT
Moon 5:45 PM CDT (10/11) 4:39 AM CDT (10/11)
Length of Visible Light 12h 16m
Length of Day
11h 24m
Waxing Gibbous, 96% of the Moon is Illuminated
Oct 11
Waxing Gibbous
Oct 13
Full
Oct 21
Last Quarter
Oct 27
New
Nov 4
First Quarter

Hourly Weather History & Observations

Time (CDT) Temp. Windchill Dew Point Humidity Pressure Visibility Wind Dir Wind Speed Gust Speed Precip Events Conditions
12:56 AM 71.1 °F - 64.0 °F 78% 29.96 in 10.0 mi South 9.2 mph - N/A   Clear
1:56 AM 70.0 °F - 64.0 °F 81% 29.95 in 10.0 mi SSE 10.4 mph - N/A   Clear
2:56 AM 71.1 °F - 63.0 °F 75% 29.93 in 10.0 mi SSE 11.5 mph - N/A   Clear
3:56 AM 71.1 °F - 62.1 °F 73% 29.93 in 10.0 mi South 12.7 mph - N/A   Clear
4:56 AM 72.0 °F - 62.1 °F 71% 29.94 in 10.0 mi South 10.4 mph - N/A   Scattered Clouds
5:28 AM 68.0 °F - 64.4 °F 88% 29.93 in 7.0 mi SSE 16.1 mph 25.3 mph N/A Rain , Thunderstorm Light Rain
5:44 AM 68.0 °F - 64.4 °F 88% 29.94 in 10.0 mi South 13.8 mph - N/A   Overcast
5:56 AM 68.0 °F - 64.0 °F 87% 29.94 in 10.0 mi South 10.4 mph - N/A   Overcast
6:56 AM 68.0 °F - 63.0 °F 84% 29.95 in 10.0 mi South 12.7 mph - N/A   Mostly Cloudy
7:56 AM 70.0 °F - 62.1 °F 76% 29.96 in 10.0 mi South 9.2 mph - N/A   Mostly Cloudy
8:56 AM 70.0 °F - 62.1 °F 76% 29.96 in 10.0 mi South 10.4 mph - N/A   Mostly Cloudy
9:56 AM 69.1 °F - 62.1 °F 78% 29.99 in 10.0 mi South 11.5 mph - 0.00 in Rain Light Rain
10:28 AM 66.2 °F - 62.6 °F 88% 30.00 in 10.0 mi SSW 8.1 mph - 0.02 in Rain Light Rain
10:56 AM 66.0 °F - 64.0 °F 93% 29.99 in 10.0 mi South 8.1 mph - 0.08 in Rain Light Rain
11:35 AM 66.2 °F - 64.4 °F 94% 29.98 in 10.0 mi South 9.2 mph - 0.00 in Rain Light Rain
11:56 AM 66.9 °F - 64.9 °F 93% 29.96 in 10.0 mi South 11.5 mph - 0.01 in Rain Light Rain
12:13 PM 68.0 °F - 64.4 °F 88% 29.96 in 10.0 mi South 11.5 mph 19.6 mph 0.01 in Rain Light Rain
12:36 PM 68.0 °F - 64.4 °F 88% 29.95 in 10.0 mi South 16.1 mph 21.9 mph 0.01 in   Mostly Cloudy
12:53 PM 68.0 °F - 64.4 °F 88% 29.94 in 10.0 mi South 15.0 mph - 0.01 in   Overcast
12:56 PM 68.0 °F - 64.9 °F 90% 29.94 in 10.0 mi South 12.7 mph - 0.01 in   Overcast
1:14 PM 69.8 °F - 66.2 °F 88% 29.93 in 10.0 mi South 15.0 mph 20.7 mph N/A   Overcast
1:39 PM 68.0 °F - 64.4 °F 88% 29.94 in 10.0 mi SSW 16.1 mph - N/A   Overcast
1:47 PM 66.2 °F - 62.6 °F 88% 29.95 in 10.0 mi West 20.7 mph 25.3 mph 0.00 in Rain Light Rain
1:56 PM 61.0 °F - 59.0 °F 93% 29.96 in 7.0 mi West 17.3 mph - 0.00 in Rain Light Rain
2:03 PM 60.8 °F - 57.2 °F 88% 29.96 in 7.0 mi WNW 11.5 mph - 0.00 in Rain Light Rain
2:56 PM 54.0 °F - 53.1 °F 97% 29.99 in 10.0 mi WNW 18.4 mph 26.5 mph 0.01 in Rain Light Rain
3:34 PM 51.8 °F - 50.0 °F 94% 30.02 in 10.0 mi WNW 16.1 mph 21.9 mph 0.00 in   Overcast
3:42 PM 51.8 °F - 50.0 °F 94% 30.02 in 10.0 mi WNW 17.3 mph - 0.00 in   Overcast
3:56 PM 51.1 °F - 48.9 °F 92% 30.03 in 10.0 mi WNW 19.6 mph 25.3 mph 0.00 in   Overcast
4:28 PM 50.0 °F - 46.4 °F 87% 30.04 in 10.0 mi NW 13.8 mph - 0.00 in   Overcast
4:56 PM 48.9 °F - 46.0 °F 90% 30.06 in 10.0 mi NW 17.3 mph 21.9 mph 0.01 in   Overcast
5:19 PM 48.2 °F - 46.4 °F 93% 30.08 in 4.0 mi WNW 12.7 mph - 0.00 in Rain Light Rain
5:29 PM 48.2 °F - 46.4 °F 93% 30.08 in 2.5 mi WNW 12.7 mph - 0.02 in Rain Light Rain
5:38 PM 48.2 °F - 46.4 °F 93% 30.08 in 5.0 mi WNW 12.7 mph - 0.02 in Rain Light Rain
5:56 PM 46.9 °F - 46.0 °F 97% 30.09 in 8.0 mi WNW 16.1 mph 23.0 mph 0.02 in Rain Light Rain
6:39 PM 46.4 °F 40.7 °F 42.8 °F 87% 30.12 in 10.0 mi NW 12.7 mph - 0.00 in   Overcast
6:43 PM 46.4 °F 41.5 °F 42.8 °F 87% 30.12 in 10.0 mi NW 10.4 mph - 0.00 in   Overcast
6:51 PM 46.4 °F 41.5 °F 42.8 °F 87% 30.13 in 10.0 mi NW 10.4 mph 19.6 mph 0.00 in   Overcast
6:56 PM 46.0 °F 40.2 °F 42.1 °F 86% 30.13 in 10.0 mi NW 12.7 mph 19.6 mph 0.00 in   Overcast
7:36 PM 46.4 °F 40.7 °F 42.8 °F 87% 30.14 in 10.0 mi NW 12.7 mph - N/A   Overcast
7:47 PM 46.4 °F 42.4 °F 42.8 °F 87% 30.15 in 10.0 mi NW 8.1 mph - N/A   Overcast
7:56 PM 46.0 °F 41.0 °F 42.1 °F 86% 30.14 in 10.0 mi NW 10.4 mph - N/A   Overcast
8:12 PM 46.4 °F 42.9 °F 42.8 °F 87% 30.15 in 10.0 mi NNW 6.9 mph - N/A   Overcast
8:56 PM 46.0 °F 41.4 °F 42.1 °F 86% 30.17 in 10.0 mi NW 9.2 mph - N/A   Overcast
9:37 PM 44.6 °F 39.2 °F 39.2 °F 81% 30.18 in 10.0 mi NW 10.4 mph - N/A   Scattered Clouds
9:56 PM 45.0 °F 40.1 °F 39.9 °F 82% 30.18 in 10.0 mi NW 9.2 mph - N/A   Clear
10:56 PM 44.1 °F 40.1 °F 39.0 °F 82% 30.20 in 10.0 mi NW 6.9 mph - N/A   Clear
11:56 PM 42.1 °F - 37.0 °F 82% 30.20 in 10.0 mi North - - N/A   Clear